Peru, IL

3:40 PM CST on December 16, 2017 (GMT -0600)
Illinois Valley Regional-Duncan

Weather History for KVYS - October, 2012

Change the Weather History Date:

Wednesday, October 3, 2012

  Actual Average Record
Temperature  
Mean Temperature 62 °F -  
Max Temperature 67 °F 71 °F 89 °F (2006)
Min Temperature 57 °F 45 °F 27 °F (1987)
Degree Days  
Heating Degree Days 3    
Growing Degree Days 12 (Base 50)    
Moisture  
Dew Point 53 °F    
Average Humidity 74    
Maximum Humidity 92    
Minimum Humidity 58    
Precipitation  
Precipitation 0.01 in - - ()
Sea Level Pressure  
Sea Level Pressure 29.96 in    
Wind  
Wind Speed 5 mph (WNW)    
Max Wind Speed 10 mph    
Max Gust Speed -    
Visibility 10 miles    
Events Rain    
Averages and records for this station are not official NWS values.
T = Trace of Precipitation, MM = Missing Value Source: NWS Daily Summary

Daily Weather History Graph

Daily Weather History Graph

Search for Another Location

Airport or City:

Trip Planner

Search our weather history database for the weather conditions in past years. The results will help you decide how hot, cold, wet, or windy it might be!

Date:

Astronomy

Oct. 03, 2012 Rise Set
Actual Time 6:55 AM CDT 6:34 PM CDT
Civil Twilight 6:28 AM CDT 7:01 PM CDT
Nautical Twilight 5:56 AM CDT 7:33 PM CDT
Astronomical Twilight 5:24 AM CDT 8:05 PM CDT
Moon 8:23 PM CDT (10/3) 10:21 AM CDT (10/3)
Length of Visible Light 12h 33m
Length of Day
11h 38m
Waning Gibbous, 88% of the Moon is Illuminated
Oct 3
Waning Gibbous
Oct 8
Last Quarter
Oct 15
New
Oct 21
First Quarter
Oct 29
Full

Hourly Weather History & Observations

Time (CDT) Temp. Dew Point Humidity Pressure Visibility Wind Dir Wind Speed Gust Speed Precip Events Conditions
12:15 AM 59.9 °F 45.5 °F 59% 29.91 in 10.0 mi ENE 5.8 mph - N/A   Overcast
12:35 AM 59.9 °F 45.9 °F 60% 29.90 in 10.0 mi NNE 5.8 mph - N/A   Overcast
12:55 AM 59.9 °F 46.9 °F 62% 29.89 in 10.0 mi NE 6.9 mph - N/A   Overcast
1:15 AM 59.9 °F 48.2 °F 65% 29.89 in 10.0 mi NE 4.6 mph - N/A   Overcast
1:35 AM 59.9 °F 48.2 °F 65% 29.89 in 10.0 mi NNE 4.6 mph - N/A   Overcast
1:55 AM 59.9 °F 48.7 °F 67% 29.89 in 10.0 mi NNE 3.5 mph - N/A   Overcast
2:15 AM 59.9 °F 49.1 °F 67% 29.89 in 10.0 mi NNE 4.6 mph - N/A   Overcast
2:35 AM 59.0 °F 48.4 °F 68% 29.89 in 10.0 mi NNW 3.5 mph - N/A   Overcast
2:55 AM 58.6 °F 48.7 °F 70% 29.89 in 10.0 mi NNW 3.5 mph - N/A   Overcast
3:15 AM 58.1 °F 49.1 °F 72% 29.90 in 10.0 mi Calm Calm - N/A   Overcast
3:35 AM 58.1 °F 49.5 °F 73% 29.90 in 10.0 mi NNW 3.5 mph - N/A   Overcast
3:55 AM 58.3 °F 49.8 °F 73% 29.90 in 10.0 mi NNW 3.5 mph - N/A   Overcast
4:15 AM 58.5 °F 50.4 °F 74% 29.90 in 10.0 mi Calm Calm - N/A   Overcast
4:35 AM 58.6 °F 50.4 °F 74% 29.91 in 10.0 mi NW 4.6 mph - N/A   Overcast
4:55 AM 58.5 °F 50.5 °F 75% 29.91 in 10.0 mi WNW 3.5 mph - N/A   Overcast
5:15 AM 58.1 °F 50.7 °F 76% 29.92 in 10.0 mi WNW 4.6 mph - N/A   Overcast
5:35 AM 58.1 °F 50.5 °F 76% 29.92 in 10.0 mi WNW 5.8 mph - N/A   Overcast
5:55 AM 57.6 °F 50.0 °F 76% 29.92 in 10.0 mi NW 8.1 mph - N/A   Overcast
6:15 AM 57.6 °F 50.4 °F 77% 29.93 in 10.0 mi NW 5.8 mph - N/A   Overcast
6:35 AM 57.6 °F 50.7 °F 78% 29.93 in 10.0 mi NW 4.6 mph - N/A   Overcast
6:55 AM 57.4 °F 50.9 °F 79% 29.93 in 10.0 mi Calm Calm - N/A   Overcast
7:15 AM 57.4 °F 51.1 °F 79% 29.94 in 10.0 mi WNW 3.5 mph - N/A   Overcast
7:35 AM 57.2 °F 51.4 °F 81% 29.94 in 5.0 mi Calm Calm - N/A   Haze
7:55 AM 57.4 °F 52.0 °F 82% 29.95 in 5.0 mi Calm Calm - N/A   Haze
8:15 AM 57.4 °F 51.6 °F 81% 29.95 in 10.0 mi West 3.5 mph - N/A   Overcast
8:35 AM 57.6 °F 51.8 °F 81% 29.96 in 10.0 mi WNW 3.5 mph - N/A   Overcast
8:55 AM 57.9 °F 51.8 °F 80% 29.96 in 10.0 mi Calm Calm - N/A   Overcast
9:15 AM 58.5 °F 52.2 °F 80% 29.96 in 10.0 mi Calm Calm - N/A   Overcast
9:35 AM 59.9 °F 53.6 °F 80% 29.96 in 10.0 mi NW 6.9 mph - N/A   Overcast
9:55 AM 59.9 °F 53.6 °F 80% 29.96 in 10.0 mi WNW 3.5 mph - N/A   Overcast
10:15 AM 60.6 °F 53.8 °F 78% 29.96 in 10.0 mi WNW 3.5 mph - N/A   Overcast
10:35 AM 62.1 °F 54.7 °F 77% 29.96 in 10.0 mi West 6.9 mph - N/A   Overcast
10:55 AM 62.6 °F 54.0 °F 73% 29.96 in 10.0 mi WNW 3.5 mph - N/A   Overcast
11:15 AM 63.5 °F 54.5 °F 72% 29.96 in 10.0 mi WNW 6.9 mph - N/A   Overcast
11:35 AM 64.4 °F 54.9 °F 71% 29.96 in 10.0 mi WNW 5.8 mph - N/A   Overcast
11:55 AM 64.9 °F 54.7 °F 69% 29.97 in 10.0 mi NNW 6.9 mph - N/A   Overcast
12:15 PM 65.5 °F 53.8 °F 66% 29.97 in 10.0 mi NW 6.9 mph - N/A   Overcast
12:35 PM 66.2 °F 53.6 °F 64% 29.96 in 10.0 mi NW 5.8 mph - N/A   Overcast
12:55 PM 66.2 °F 53.1 °F 63% 29.96 in 10.0 mi NNW 4.6 mph - N/A   Overcast
1:15 PM 67.1 °F 53.2 °F 61% 29.95 in 10.0 mi NNW 6.9 mph - N/A   Overcast
1:35 PM 67.1 °F 53.1 °F 61% 29.94 in 10.0 mi WNW 4.6 mph - N/A   Overcast
1:55 PM 67.1 °F 52.7 °F 60% 29.94 in 10.0 mi WNW 5.8 mph - N/A   Overcast
2:15 PM 66.6 °F 52.2 °F 60% 29.94 in 10.0 mi NW 5.8 mph - N/A   Overcast
2:35 PM 66.4 °F 52.2 °F 60% 29.95 in 10.0 mi West 4.6 mph - N/A   Overcast
2:55 PM 66.4 °F 51.8 °F 59% 29.96 in 10.0 mi West 4.6 mph - N/A   Overcast
3:15 PM 66.9 °F 51.8 °F 58% 29.96 in 10.0 mi Calm Calm - N/A   Overcast
3:35 PM 66.7 °F 51.4 °F 58% 29.96 in 10.0 mi West 5.8 mph - N/A   Overcast
3:55 PM 66.7 °F 51.6 °F 58% 29.96 in 10.0 mi WSW 6.9 mph - N/A   Overcast
4:15 PM 65.3 °F 51.8 °F 62% 29.96 in 10.0 mi West 8.1 mph - N/A   Overcast
4:35 PM 64.9 °F 52.5 °F 64% 29.96 in 10.0 mi West 10.4 mph - N/A   Overcast
4:55 PM 64.4 °F 52.9 °F 66% 29.97 in 10.0 mi West 8.1 mph - N/A   Overcast
5:15 PM 63.9 °F 53.1 °F 68% 29.97 in 10.0 mi West 6.9 mph - N/A   Overcast
5:35 PM 63.7 °F 53.2 °F 69% 29.97 in 10.0 mi WSW 3.5 mph - N/A   Overcast
5:55 PM 63.0 °F 54.0 °F 72% 29.97 in 10.0 mi Calm Calm - N/A   Overcast
6:15 PM 62.6 °F 54.1 °F 74% 29.98 in 10.0 mi SW 3.5 mph - N/A   Overcast
6:35 PM 60.6 °F 55.4 °F 83% 29.98 in 5.0 mi Calm Calm - N/A Rain Light Rain
6:55 PM 59.9 °F 55.2 °F 84% 29.99 in 10.0 mi Calm Calm - N/A   Light Drizzle
7:15 PM 59.9 °F 55.8 °F 86% 29.99 in 10.0 mi Calm Calm - N/A   Drizzle
7:35 PM 60.1 °F 55.4 °F 85% 30.00 in 10.0 mi Calm Calm - 0.01 in Rain Light Rain
7:55 PM 60.1 °F 55.6 °F 85% 30.00 in 10.0 mi Calm Calm - 0.01 in   Light Drizzle
8:15 PM 59.9 °F 56.3 °F 88% 30.00 in 10.0 mi South 4.6 mph - N/A Rain Light Rain
8:35 PM 59.9 °F 57.6 °F 92% 30.01 in 5.0 mi South 6.9 mph - N/A   Drizzle
8:55 PM 59.9 °F 57.6 °F 92% 30.01 in 7.0 mi South 10.4 mph - N/A   Overcast
9:15 PM 59.9 °F 57.4 °F 91% 30.03 in 7.0 mi South 6.9 mph - N/A   Overcast
9:35 PM 59.9 °F 57.2 °F 91% 30.03 in 7.0 mi SSW 8.1 mph - N/A   Overcast
9:55 PM 59.9 °F 57.2 °F 91% 30.02 in 7.0 mi South 9.2 mph - N/A   Overcast
10:15 PM 59.9 °F 56.5 °F 88% 30.03 in 10.0 mi South 9.2 mph - N/A   Overcast
10:35 PM 59.9 °F 55.6 °F 86% 30.03 in 10.0 mi SSW 6.9 mph - N/A   Overcast
10:55 PM 59.9 °F 55.9 °F 87% 30.03 in 10.0 mi South 8.1 mph - N/A   Overcast
11:15 PM 59.0 °F 54.5 °F 85% 30.03 in 10.0 mi South 5.8 mph - N/A   Overcast
11:35 PM 58.3 °F 54.7 °F 88% 30.03 in 10.0 mi South 5.8 mph - N/A   Overcast
11:55 PM 58.6 °F 52.7 °F 81% 30.03 in 10.0 mi South 6.9 mph - N/A   Overcast